QPF
0.05 0.06 0.06 0.06 0.07 0.07 0.08 0.09 0.09 0.08 0.08 0.06 0.04 0.02 0.02 0.03 0.02 0.02 0.02 0.03 0.04 0.05 0.06 0.05 0.04 0.03 0.04 0.04 0.04 0.03 0.04 0.06 0.06 0.06 0.06 0.06 0.06 0.07
0.06 0.06 0.07 0.05 0.07 0.08 0.08 0.09 0.10 0.09 0.07 0.03 0.03 0.02 0.03 0.06 0.03 0.02 0.02 0.03 0.03 0.03 0.05 0.08 0.07 0.04 0.04 0.03 0.03 0.02 0.02 0.04 0.06 0.06 0.07 0.09 0.09 0.08
0.05 0.05 0.05 0.06 0.07 0.07 0.09 0.09 0.10 0.11 0.07 0.04 0.03 0.03 0.04 0.05 0.05 0.05 0.04 0.04 0.03 0.02 0.03 0.07 0.07 0.04 0.03 0.03 0.03 0.03 0.04 0.05 0.06 0.07 0.08 0.09 0.09 0.09
0.04 0.05 0.05 0.07 0.08 0.07 0.08 0.08 0.09 0.10 0.08 0.05 0.05 0.05 0.07 0.07 0.07 0.06 0.04 0.04 0.03 0.03 0.02 0.02 0.03 0.03 0.02 0.02 0.01 0.01 0.01 0.02 0.02 0.03 0.04 0.05 0.05 0.05
0.04 0.05 0.06 0.08 0.07 0.07 0.08 0.08 0.08 0.08 0.08 0.06 0.04 0.06 0.06 0.04 0.05 0.04 0.04 0.04 0.02 0.03 0.03 0.03 0.03 0.02 0.02 0.01 0.01 0.01 0.01 0.01 0.01 0.01 0.02 0.02 0.03 0.04
0.04 0.05 0.05 0.07 0.09 0.09 0.08 0.08 0.08 0.09 0.08 0.07 0.05 0.06 0.05 0.04 0.05 0.04 0.05 0.05 0.03 0.03 0.04 0.03 0.03 0.03 0.02 0.01 0.01 0.01 0.02 0.02 0.01 0.01 0.01 0.02 0.03 0.04
0.03 0.04 0.04 0.04 0.05 0.06 0.06 0.07 0.06 0.07 0.08 0.07 0.06 0.06 0.06 0.07 0.06 0.06 0.06 0.06 0.05 0.05 0.05 0.03 0.03 0.03 0.02 0.01 0.01 0.02 0.02 0.02 0.01 0.02 0.02 0.03 0.04 0.04
0.03 0.03 0.02 0.01 0.02 0.02 0.03 0.04 0.04 0.04 0.05 0.06 0.06 0.06 0.06 0.06 0.07 0.08 0.08 0.07 0.06 0.06 0.06 0.04 0.04 0.04 0.04 0.03 0.03 0.03 0.02 0.02 0.02 0.02 0.02 0.04 0.04 0.04
0.02 0.02 0.01 0.01 0.01 0.01 0.01 0.01 0.01 0.01 0.02 0.04 0.04 0.04 0.05 0.06 0.08 0.07 0.08 0.07 0.06 0.05 0.06 0.04 0.03 0.03 0.04 0.05 0.05 0.04 0.03 0.02 0.02 0.02 0.03 0.04 0.03 0.03
0.01 0.02 0.02 0.02 0.01 0.01 0.01 0.01 0.01 0.01 0.02 0.02 0.03 0.03 0.04 0.06 0.06 0.07 0.09 0.09 0.08 0.07 0.07 0.06 0.04 0.03 0.03 0.04 0.06 0.05 0.04 0.03 0.03 0.03 0.04 0.04 0.03 0.03
0.01 0.01 0.01 0.02 0.01 0.01 0.01 0.02 0.02 0.02 0.02 0.02 0.02 0.03 0.04 0.05 0.06 0.05 0.07 0.08 0.06 0.05 0.06 0.05 0.04 0.06 0.05 0.04 0.07 0.08 0.06 0.04 0.04 0.04 0.05 0.05 0.05 0.04
0.01 0.02 0.01 0.01 0.01 0.00 0.02 0.03 0.02 0.02 0.03 0.03 0.02 0.03 0.03 0.04 0.05 0.05 0.06 0.07 0.06 0.06 0.05 0.06 0.05 0.07 0.08 0.07 0.07 0.10 0.11 0.09 0.08 0.07 0.06 0.05 0.04 0.04
0.02 0.02 0.02 0.01 0.01 0.01 0.01 0.02 0.02 0.02 0.04 0.04 0.04 0.04 0.04 0.04 0.04 0.04 0.05 0.06 0.05 0.05 0.04 0.05 0.06 0.07 0.08 0.09 0.09 0.11 0.12 0.10 0.09 0.08 0.06 0.04 0.03 0.03
0.02 0.02 0.03 0.02 0.01 0.01 0.01 0.01 0.02 0.01 0.02 0.03 0.04 0.05 0.04 0.03 0.04 0.05 0.05 0.05 0.05 0.05 0.07 0.08 0.07 0.07 0.09 0.09 0.07 0.08 0.09 0.09 0.06 0.06 0.05 0.04 0.03 0.02
0.01 0.02 0.02 0.01 0.01 0.01 0.00 0.00 0.01 0.01 0.02 0.03 0.04 0.04 0.04 0.04 0.05 0.05 0.06 0.07 0.06 0.06 0.07 0.09 0.08 0.08 0.09 0.11 0.10 0.08 0.08 0.08 0.06 0.05 0.04 0.03 0.02 0.02
0.01 0.02 0.02 0.02 0.01 0.01 0.01 0.01 0.01 0.01 0.02 0.03 0.03 0.05 0.05 0.05 0.05 0.06 0.07 0.08 0.08 0.08 0.09 0.09 0.08 0.09 0.09 0.10 0.11 0.10 0.07 0.07 0.07 0.06 0.04 0.03 0.02 0.02
0.03 0.04 0.04 0.03 0.01 0.01 0.01 0.01 0.01 0.02 0.02 0.03 0.03 0.04 0.05 0.04 0.05 0.05 0.07 0.08 0.09 0.10 0.11 0.12 0.13 0.12 0.10 0.09 0.09 0.08 0.08 0.07 0.06 0.05 0.06 0.06 0.04 0.03
0.03 0.04 0.04 0.04 0.03 0.02 0.02 0.03 0.03 0.03 0.03 0.04 0.05 0.05 0.06 0.06 0.06 0.06 0.08 0.08 0.07 0.07 0.08 0.10 0.13 0.13 0.12 0.11 0.10 0.09 0.08 0.07 0.06 0.06 0.06 0.06 0.06 0.05
0.03 0.04 0.05 0.05 0.04 0.04 0.04 0.04 0.04 0.04 0.06 0.06 0.07 0.08 0.07 0.08 0.09 0.10 0.11 0.11 0.11 0.10 0.09 0.10 0.11 0.11 0.11 0.10 0.08 0.07 0.06 0.06 0.05 0.05 0.05 0.05 0.05 0.04
0.05 0.06 0.06 0.05 0.05 0.05 0.05 0.05 0.06 0.06 0.07 0.07 0.08 0.08 0.08 0.08 0.10 0.12 0.12 0.12 0.11 0.11 0.10 0.10 0.10 0.10 0.09 0.08 0.06 0.05 0.04 0.04 0.05 0.04 0.03 0.03 0.03 0.03
0.05 0.06 0.05 0.05 0.05 0.05 0.06 0.07 0.07 0.08 0.10 0.11 0.10 0.11 0.11 0.12 0.13 0.13 0.12 0.12 0.11 0.09 0.08 0.08 0.08 0.10 0.09 0.08 0.06 0.05 0.04 0.03 0.03 0.04 0.04 0.04 0.04 0.04
0.04 0.06 0.06 0.06 0.06 0.06 0.07 0.09 0.10 0.11 0.12 0.14 0.13 0.12 0.11 0.11 0.11 0.12 0.12 0.12 0.11 0.09 0.08 0.08 0.10 0.10 0.09 0.09 0.07 0.06 0.05 0.05 0.05 0.06 0.06 0.05 0.05 0.04
0.04 0.05 0.06 0.08 0.08 0.10 0.11 0.12 0.14 0.14 0.13 0.13 0.14 0.14 0.14 0.13 0.13 0.12 0.11 0.12 0.11 0.10 0.10 0.09 0.09 0.08 0.08 0.08 0.08 0.08 0.08 0.06 0.04 0.04 0.04 0.03 0.03 0.03
MSLP
1015.43 1015.62 1015.85 1016.08 1016.28 1016.39 1016.39 1016.27 1016.02 1015.66 1015.23 1014.78 1014.33 1013.94 1013.63 1013.43 1013.32 1013.31 1013.38 1013.51 1013.66 1013.82 1013.98 1014.10 1014.20 1014.27 1014.32 1014.37 1014.42 1014.48 1014.55 1014.62 1014.69 1014.72 1014.70 1014.62 1014.45 1014.19
1014.72 1014.86 1015.05 1015.27 1015.48 1015.63 1015.69 1015.64 1015.48 1015.22 1014.87 1014.48 1014.08 1013.71 1013.40 1013.17 1013.03 1012.97 1012.98 1013.05 1013.16 1013.29 1013.42 1013.55 1013.67 1013.79 1013.90 1014.02 1014.16 1014.30 1014.44 1014.57 1014.66 1014.71 1014.68 1014.55 1014.32 1013.99
1014.08 1014.17 1014.32 1014.51 1014.70 1014.87 1014.98 1014.99 1014.91 1014.73 1014.47 1014.15 1013.81 1013.47 1013.18 1012.94 1012.77 1012.67 1012.63 1012.64 1012.70 1012.78 1012.88 1013.00 1013.13 1013.27 1013.43 1013.61 1013.81 1014.02 1014.22 1014.39 1014.52 1014.58 1014.54 1014.39 1014.13 1013.75
1013.53 1013.57 1013.67 1013.82 1013.99 1014.16 1014.29 1014.35 1014.33 1014.22 1014.04 1013.79 1013.51 1013.22 1012.95 1012.71 1012.52 1012.39 1012.31 1012.27 1012.27 1012.30 1012.36 1012.45 1012.56 1012.70 1012.88 1013.08 1013.32 1013.56 1013.80 1014.02 1014.17 1014.25 1014.22 1014.07 1013.80 1013.41
1013.02 1013.02 1013.08 1013.20 1013.34 1013.50 1013.64 1013.72 1013.75 1013.69 1013.57 1013.38 1013.16 1012.92 1012.67 1012.45 1012.26 1012.10 1011.99 1011.90 1011.85 1011.83 1011.84 1011.87 1011.95 1012.06 1012.22 1012.42 1012.65 1012.90 1013.16 1013.40 1013.58 1013.68 1013.68 1013.56 1013.32 1012.96
1012.51 1012.49 1012.52 1012.60 1012.72 1012.86 1012.99 1013.08 1013.13 1013.12 1013.04 1012.90 1012.73 1012.52 1012.31 1012.11 1011.93 1011.76 1011.62 1011.50 1011.41 1011.34 1011.28 1011.26 1011.28 1011.34 1011.45 1011.61 1011.81 1012.06 1012.31 1012.56 1012.76 1012.90 1012.95 1012.88 1012.70 1012.40
1011.97 1011.93 1011.94 1011.99 1012.08 1012.20 1012.31 1012.41 1012.46 1012.46 1012.41 1012.31 1012.17 1012.00 1011.82 1011.64 1011.47 1011.31 1011.16 1011.02 1010.89 1010.78 1010.67 1010.59 1010.54 1010.54 1010.58 1010.69 1010.86 1011.07 1011.32 1011.57 1011.80 1011.98 1012.09 1012.10 1012.00 1011.79
1011.35 1011.31 1011.30 1011.34 1011.41 1011.50 1011.60 1011.67 1011.72 1011.72 1011.67 1011.59 1011.47 1011.32 1011.17 1011.01 1010.86 1010.71 1010.56 1010.41 1010.26 1010.12 1009.97 1009.84 1009.74 1009.67 1009.66 1009.72 1009.84 1010.03 1010.26 1010.53 1010.79 1011.03 1011.21 1011.30 1011.30 1011.18
1010.70 1010.65 1010.64 1010.66 1010.72 1010.78 1010.85 1010.90 1010.92 1010.90 1010.85 1010.75 1010.63 1010.50 1010.35 1010.21 1010.07 1009.93 1009.79 1009.65 1009.50 1009.33 1009.17 1009.01 1008.87 1008.77 1008.72 1008.74 1008.83 1009.00 1009.23 1009.51 1009.82 1010.11 1010.36 1010.54 1010.63 1010.61
1010.05 1010.01 1010.00 1010.01 1010.04 1010.08 1010.11 1010.13 1010.11 1010.05 1009.96 1009.84 1009.70 1009.55 1009.40 1009.26 1009.12 1008.99 1008.86 1008.73 1008.58 1008.42 1008.26 1008.10 1007.95 1007.83 1007.77 1007.78 1007.87 1008.04 1008.28 1008.58 1008.92 1009.27 1009.58 1009.84 1010.01 1010.08
1009.49 1009.46 1009.44 1009.44 1009.45 1009.45 1009.44 1009.40 1009.33 1009.22 1009.08 1008.91 1008.72 1008.54 1008.36 1008.20 1008.05 1007.92 1007.79 1007.67 1007.54 1007.40 1007.26 1007.11 1006.98 1006.89 1006.84 1006.86 1006.96 1007.14 1007.41 1007.73 1008.10 1008.49 1008.86 1009.17 1009.41 1009.54
1009.09 1009.05 1009.02 1009.00 1008.97 1008.93 1008.87 1008.77 1008.63 1008.45 1008.23 1007.99 1007.75 1007.51 1007.28 1007.09 1006.91 1006.77 1006.64 1006.53 1006.42 1006.31 1006.20 1006.09 1006.00 1005.94 1005.92 1005.96 1006.09 1006.29 1006.57 1006.91 1007.30 1007.71 1008.11 1008.46 1008.74 1008.92
1008.88 1008.82 1008.77 1008.71 1008.64 1008.54 1008.41 1008.23 1008.01 1007.75 1007.45 1007.14 1006.82 1006.51 1006.23 1005.98 1005.77 1005.60 1005.47 1005.36 1005.27 1005.20 1005.12 1005.06 1005.01 1004.99 1005.01 1005.08 1005.22 1005.43 1005.71 1006.06 1006.44 1006.85 1007.26 1007.63 1007.93 1008.15
1008.83 1008.75 1008.66 1008.55 1008.41 1008.24 1008.03 1007.77 1007.46 1007.11 1006.73 1006.34 1005.94 1005.56 1005.22 1004.92 1004.68 1004.48 1004.34 1004.23 1004.16 1004.11 1004.08 1004.05 1004.05 1004.06 1004.10 1004.19 1004.33 1004.53 1004.78 1005.10 1005.46 1005.84 1006.23 1006.60 1006.92 1007.18
1008.89 1008.76 1008.61 1008.43 1008.22 1007.97 1007.67 1007.33 1006.94 1006.51 1006.06 1005.59 1005.13 1004.69 1004.29 1003.95 1003.67 1003.46 1003.30 1003.20 1003.15 1003.12 1003.11 1003.12 1003.14 1003.17 1003.22 1003.29 1003.41 1003.56 1003.76 1004.02 1004.31 1004.65 1005.00 1005.35 1005.70 1006.01
1008.94 1008.75 1008.53 1008.28 1007.98 1007.65 1007.27 1006.85 1006.39 1005.90 1005.39 1004.88 1004.37 1003.90 1003.47 1003.10 1002.80 1002.57 1002.42 1002.32 1002.28 1002.27 1002.29 1002.31 1002.34 1002.36 1002.39 1002.43 1002.48 1002.56 1002.68 1002.84 1003.05 1003.31 1003.61 1003.94 1004.30 1004.67
1008.89 1008.63 1008.34 1008.00 1007.62 1007.22 1006.78 1006.30 1005.80 1005.28 1004.74 1004.21 1003.69 1003.20 1002.76 1002.39 1002.09 1001.87 1001.72 1001.63 1001.61 1001.61 1001.64 1001.67 1001.69 1001.69 1001.67 1001.64 1001.60 1001.58 1001.59 1001.64 1001.75 1001.92 1002.16 1002.47 1002.84 1003.26
1008.64 1008.32 1007.95 1007.54 1007.11 1006.65 1006.18 1005.68 1005.17 1004.65 1004.12 1003.60 1003.10 1002.63 1002.21 1001.86 1001.57 1001.36 1001.23 1001.16 1001.14 1001.17 1001.19 1001.22 1001.21 1001.18 1001.10 1000.99 1000.86 1000.72 1000.61 1000.54 1000.53 1000.61 1000.79 1001.07 1001.45 1001.92
1008.18 1007.80 1007.38 1006.93 1006.47 1005.99 1005.52 1005.04 1004.55 1004.07 1003.59 1003.11 1002.65 1002.22 1001.84 1001.51 1001.25 1001.06 1000.94 1000.89 1000.89 1000.91 1000.94 1000.96 1000.93 1000.85 1000.72 1000.53 1000.30 1000.05 999.82 999.64 999.53 999.52 999.63 999.88 1000.27 1000.78
1007.52 1007.11 1006.67 1006.21 1005.75 1005.30 1004.87 1004.44 1004.02 1003.60 1003.19 1002.78 1002.38 1002.00 1001.65 1001.35 1001.11 1000.94 1000.83 1000.78 1000.79 1000.82 1000.85 1000.85 1000.81 1000.70 1000.52 1000.27 999.96 999.63 999.31 999.03 998.83 998.75 998.81 999.02 999.41 999.94
1006.73 1006.32 1005.89 1005.46 1005.05 1004.67 1004.31 1003.97 1003.64 1003.31 1002.98 1002.64 1002.30 1001.97 1001.65 1001.37 1001.13 1000.96 1000.84 1000.79 1000.79 1000.82 1000.85 1000.85 1000.79 1000.67 1000.47 1000.19 999.84 999.46 999.08 998.74 998.48 998.34 998.35 998.54 998.90 999.43
1005.89 1005.51 1005.13 1004.77 1004.45 1004.16 1003.90 1003.67 1003.45 1003.22 1002.98 1002.71 1002.42 1002.11 1001.81 1001.51 1001.26 1001.06 1000.92 1000.84 1000.82 1000.83 1000.86 1000.86 1000.82 1000.70 1000.51 1000.24 999.89 999.50 999.10 998.74 998.45 998.28 998.26 998.41 998.74 999.24
1005.06 1004.75 1004.46 1004.19 1003.98 1003.81 1003.68 1003.57 1003.46 1003.33 1003.16 1002.95 1002.69 1002.38 1002.06 1001.73 1001.43 1001.18 1000.98 1000.86 1000.80 1000.79 1000.80 1000.82 1000.79 1000.72 1000.56 1000.33 1000.02 999.67 999.29 998.94 998.66 998.47 998.43 998.55 998.84 999.28
Thickness
5760 5758 5756 5757 5757 5756 5754 5750 5741 5732 5733 5739 5741 5745 5744 5741 5740 5737 5735 5733 5731 5729 5727 5726 5724 5724 5722 5721 5720 5719 5718 5716 5715 5714 5714 5713 5712 5710
5756 5754 5753 5753 5753 5753 5752 5750 5746 5739 5733 5737 5739 5741 5740 5739 5737 5735 5733 5731 5728 5727 5725 5723 5722 5721 5720 5718 5717 5716 5714 5713 5712 5711 5710 5709 5709 5707
5754 5753 5751 5751 5749 5748 5747 5746 5743 5740 5732 5734 5737 5738 5737 5734 5733 5732 5730 5728 5725 5724 5722 5720 5718 5717 5716 5715 5714 5713 5711 5709 5708 5708 5707 5706 5705 5704
5752 5750 5748 5748 5746 5744 5742 5741 5739 5738 5733 5728 5730 5731 5731 5731 5729 5728 5728 5727 5724 5722 5719 5717 5715 5713 5711 5710 5709 5708 5707 5705 5705 5703 5702 5701 5701 5699
5750 5748 5746 5744 5741 5740 5738 5736 5736 5736 5732 5728 5726 5727 5727 5727 5724 5724 5724 5723 5721 5719 5716 5714 5711 5709 5708 5706 5704 5703 5702 5701 5700 5699 5698 5697 5696 5694
5748 5746 5744 5741 5738 5736 5734 5732 5731 5729 5727 5724 5722 5721 5721 5722 5719 5717 5716 5717 5716 5716 5713 5711 5708 5706 5704 5702 5700 5699 5697 5696 5695 5694 5694 5693 5691 5690
5744 5743 5741 5738 5736 5733 5731 5728 5726 5724 5722 5719 5717 5716 5714 5713 5711 5712 5710 5710 5711 5711 5708 5706 5705 5702 5700 5698 5696 5695 5694 5692 5691 5690 5689 5688 5686 5685
5739 5738 5736 5734 5732 5730 5727 5725 5723 5719 5716 5714 5712 5710 5709 5709 5709 5708 5705 5702 5700 5706 5703 5701 5702 5699 5697 5695 5694 5692 5690 5688 5687 5685 5684 5683 5682 5680
5735 5733 5733 5733 5729 5726 5723 5722 5719 5717 5714 5711 5708 5707 5706 5707 5705 5702 5701 5698 5697 5700 5698 5695 5697 5694 5695 5694 5692 5689 5687 5684 5682 5681 5679 5678 5677 5675
5731 5730 5727 5726 5725 5720 5718 5716 5715 5713 5711 5708 5707 5707 5706 5705 5703 5701 5699 5697 5697 5697 5695 5689 5691 5690 5691 5689 5688 5686 5683 5681 5678 5676 5675 5673 5671 5670
5728 5727 5724 5721 5718 5715 5712 5710 5708 5708 5707 5706 5705 5703 5702 5701 5699 5696 5693 5690 5688 5690 5692 5687 5686 5685 5685 5684 5683 5681 5679 5676 5674 5671 5669 5668 5666 5664
5723 5722 5719 5716 5713 5710 5707 5704 5701 5701 5701 5700 5698 5698 5697 5696 5695 5692 5689 5686 5684 5683 5687 5684 5682 5680 5676 5678 5677 5675 5672 5670 5668 5666 5664 5662 5660 5657
5717 5716 5716 5712 5707 5704 5701 5699 5698 5696 5695 5694 5693 5693 5693 5693 5692 5690 5688 5685 5682 5680 5683 5681 5677 5675 5671 5670 5670 5669 5667 5665 5662 5659 5657 5655 5654 5651
5711 5711 5709 5706 5702 5698 5696 5695 5693 5690 5689 5688 5688 5688 5688 5688 5689 5688 5686 5684 5682 5680 5680 5677 5673 5670 5667 5663 5662 5663 5661 5660 5658 5655 5652 5650 5647 5645
5705 5703 5701 5699 5696 5693 5691 5689 5686 5685 5684 5682 5682 5684 5685 5685 5685 5683 5682 5680 5678 5677 5676 5673 5670 5667 5663 5659 5657 5656 5654 5652 5652 5649 5647 5644 5642 5639
5695 5695 5694 5692 5689 5688 5686 5683 5682 5681 5680 5679 5679 5680 5680 5679 5677 5676 5673 5672 5669 5668 5670 5669 5666 5662 5658 5656 5653 5650 5648 5646 5645 5643 5641 5639 5637 5635
5687 5687 5687 5685 5683 5682 5681 5680 5678 5677 5675 5675 5674 5673 5672 5671 5670 5670 5667 5665 5662 5661 5661 5661 5660 5657 5654 5650 5647 5645 5643 5641 5639 5637 5634 5632 5630 5628
5680 5681 5681 5680 5678 5677 5675 5674 5673 5672 5671 5670 5668 5666 5665 5663 5662 5661 5660 5658 5656 5655 5654 5653 5651 5648 5645 5643 5643 5640 5638 5636 5634 5631 5629 5624 5622 5621
5673 5675 5675 5674 5673 5672 5671 5669 5669 5668 5667 5665 5663 5661 5659 5657 5655 5653 5652 5651 5650 5648 5648 5647 5644 5640 5635 5634 5635 5635 5632 5630 5627 5624 5622 5619 5616 5615
5669 5670 5669 5669 5668 5666 5666 5665 5665 5664 5662 5659 5658 5656 5654 5652 5650 5647 5646 5644 5643 5641 5640 5640 5638 5635 5631 5629 5628 5627 5627 5625 5621 5618 5615 5612 5609 5607
5664 5664 5664 5663 5662 5661 5661 5660 5659 5658 5656 5653 5652 5650 5648 5646 5643 5641 5639 5637 5635 5634 5632 5632 5632 5631 5629 5624 5620 5619 5619 5618 5617 5613 5609 5604 5601 5599
5657 5657 5656 5656 5656 5655 5654 5654 5652 5650 5648 5646 5644 5642 5641 5639 5636 5634 5631 5629 5627 5627 5626 5626 5625 5623 5619 5616 5613 5612 5611 5609 5608 5605 5603 5601 5596 5592
5649 5648 5648 5648 5648 5648 5647 5645 5644 5642 5640 5638 5636 5634 5632 5630 5628 5627 5624 5622 5620 5619 5617 5617 5616 5614 5612 5610 5607 5605 5603 5602 5599 5596 5593 5593 5591 5589